Regional Weather Roundup
Issued by NWS Jackson, KY

Home | Current Version | Previous Version | Text Only | Print | Product List | Glossary Off
Versions: 1 2 3 4 5 6 7 8 9 10 11 12 13 14 15 16 17 18 19 20 21 22 23 24 25 26 27 28 29 30 31 32 33 34 35 36 37 38 39 40 41 42 43 44 45 46 47 48 49 50

000
ASUS43 KJKL 261710
RWRJKL

EAST KENTUCKY HOURLY WEATHER ROUNDUP
NATIONAL WEATHER SERVICE JACKSON KY
100 PM EDT THU MAR 26 2015

NOTE: "FAIR" INDICATES FEW OR NO CLOUDS BELOW 12,000 FEET WITH
NO SIGNIFICANT WEATHER AND/OR OBSTRUCTIONS TO VISIBILITY.

* THESE REPORTS ARE NOT UNDER NWS QUALITY CONTROL AND MAY NOT
  REPORT WEATHER SUCH AS PRECIPITATION AND FOG.

KYZ079-080-083-085-087-088-110-112-115-119-120-261800
...EASTERN KENTUCKY...

CITY           SKY/WX    TMP DP  RH WIND       PRES   REMARKS
JACKSON        CLOUDY    67  52  58 MISG      29.77F
LONDON         HVY RAIN  62  54  74 W24G38    29.81F
SOMERSET*      CLOUDY    61  54  77 W16G24    29.84S
MONTICELLO*    MOSUNNY   64  57  78 W14       29.86F
MIDDLESBORO*   CLOUDY    69  58  68 S9G17     29.82F
HAZARD APT*    CLOUDY    68  55  64 SW15G23   29.79F
BLACK MTN*       N/A     52  52 100 SW8         N/A
PIKEVILLE APT* CLOUDY    64  54  68 SW6       29.79F
BIG SANDY*     PTSUNNY   69  55  59 W16G26    29.77F
MOREHEAD APT*  LGT RAIN  48  46  93 NW12G18   29.85R
$$

KYZ035-036-041-042-044-050-067-078-099-261800
...CENTRAL KENTUCKY...

CITY           SKY/WX    TMP DP  RH WIND       PRES   REMARKS
MT STERLING*   CLOUDY    46  46 100 N9G17     29.86R FOG
FLEMING/MASON* CLOUDY    45  43  93 N10       29.86R
DANVILLE*      DRIZZLE   46  46 100 NW9       29.88R
RICHMOND*      CLOUDY    50  48  93 NW14G21   29.84R
LEXINGTON      CLOUDY    47  44  90 N9G20     29.87R
FRANKFORT      CLOUDY    48  44  86 N7        29.87F
$$

KYZ091>093-OHZ055-061-077-WVZ005-015-034-035-042-261800
...SOUTHERN OHIO/WEST VIRGINIA...

CITY           SKY/WX    TMP DP  RH WIND       PRES   REMARKS
COVINGTON      LGT RAIN  45  42  89 N12       29.88F
COLUMBUS       CLOUDY    44  41  89 NW12      29.84S
DAYTON         LGT RAIN  44  41  89 NW9       29.87F
WILMINGTON     LGT RAIN  44  41  89 N13       29.85F FOG
HUNTINGTON     LGT RAIN  52  50  93 NW12      29.77R FOG
CHARLESTON     PTSUNNY   71  50  47 W20G31    29.72F
PINEVILLE*     DRIZZLE   66  56  71 MISG      29.85R
BECKLEY        CLOUDY    66  46  48 SW15      29.80F
BLUEFIELD      CLOUDY    68  47  46 SW21G32   29.83F
$$

VAZ002-007-008-TNZ017-027-036-066-071-261800
...SOUTHWEST VIRGINIA/EAST TENNESSEE...

CITY           SKY/WX    TMP DP  RH WIND       PRES   REMARKS
WISE*          CLOUDY    59  55  88 SW17      29.87F
JONESVILLE*    PTSUNNY   66  59  77 SW12      29.86F
ABINGDON*      CLOUDY    66  52  60 W14G22    29.85F
BRISTOL        LGT RAIN  67  53  61 W20       29.84F
KNOXVILLE      PTSUNNY   71  55  56 SW21      29.84F
OAK RIDGE      PTSUNNY   73  55  53 SW9G22    29.84F
CROSSVILLE     PTSUNNY   68  52  56 W15G26    29.85F
NASHVILLE      CLOUDY    60  54  80 N12G20    29.83F HAZE
$$

...KEY TO REMARKS...
VSB - VISIBILITY IN MILES
WCI - WIND CHILL INDEX
HX  - HEAT INDEX

$$



USA.gov is the U.S. government's official web portal to all federal, state and local government web resources and services.